Regional Weather Roundup
Issued by NWS

Home | Current Version | Previous Version | Text Only | Print | Product List | Glossary On
Versions: 1 2 3 4 5 6 7 8 9 10 11 12 13 14 15 16 17 18 19 20 21 22 23 24 25 26 27 28 29 30 31 32 33 34 35 36 37 38 39 40 41 42 43 44 45 46 47 48 49 50
000
ASUS43 KMPX 230810
RWRMN
WEATHER ROUNDUP FOR MINNESOTA
NATIONAL WEATHER SERVICE TWIN CITIES/CHANHASSEN MN
300 AM CDT MON OCT 23 2017


NOTE: "FAIR" INDICATES FEW OR NO CLOUDS BELOW 12,000 FEET WITH NO
SIGNIFICANT WEATHER AND/OR OBSTRUCTIONS TO VISIBILITY. N/A MEANS
CURRENT SKY AND/OR WEATHER CONDITIONS ARE NOT AVAILABLE.

MNZ060>063-068>070-230900-
   Twin Cities Metro

CITY           SKY/WX    TMP DP  RH WIND       PRES   REMARKS
TWIN CITIES    MOCLDY    56  34  43 S10       29.83F
ST PAUL        CLOUDY    52  39  61 S8        29.84F
CRYSTAL        PTCLDY    54  32  43 S10       29.80F
BLAINE         CLOUDY    55  36  47 S10       29.81S
LAKEVILLE      CLOUDY    52  36  54 S10G16    29.83F
EDEN PRAIRIE   MOCLDY    55  34  45 S10       29.81F
SOUTH ST PAUL  PTCLDY    54  35  49 S6        29.83F
LAKE ELMO      FAIR      52  37  58 S10       29.84F
$$
MNZ001>005-007-008-013>017-022>024-027-028-230900-
   Northwest Minnesota

CITY           SKY/WX    TMP DP  RH WIND       PRES   REMARKS
BEMIDJI        LGT RAIN  53  37  55 S8        29.63F
HALLOCK        CLOUDY    48  39  71 S7        29.55R
ROSEAU         MOCLDY    52  37  58 S12       29.54S
WARROAD        MOCLDY    48  39  71 S5        29.55S
THIEF RVR FALL LGT RAIN  51  47  86 SW12      29.61R
CROOKSTON      LGT RAIN  50  48  93 W10G16    29.62R
FOSSTON        DRIZZLE   46  45  93 S9        29.63S
DETROIT LAKES  CLOUDY    54  39  58 SW10      29.66R
MOORHEAD       CLOUDY    54  39  58 W10       29.66R
PARK RAPIDS    MOCLDY    52  37  56 S8        29.64F
MAHNOMEN       CLOUDY    50  43  77 S9        29.63R
$$
MNZ006-009>011-018-025>026-230900-
   North Central Minnesota

CITY           SKY/WX    TMP DP  RH WIND       PRES   REMARKS
BAUDETTE       CLOUDY    51  35  54 S10       29.58F
FLAG ISLAND    PTCLDY    52  45  76 SE7       29.54F
INTL FALLS     MOCLDY    53  33  46 S5        29.62F
WASKISH        CLOUDY    54  36  50 S7        29.61F
BIG FORK       CLOUDY    54  36  50 S7        29.66S
LONGVILLE      CLOUDY    54  36  50 S6        29.68F
GRAND RAPIDS   CLOUDY    53  36  52 S14       29.70F
CRANE LAKE     CLOUDY    52  32  46 S5        29.69S
ORR            CLOUDY    52  30  43 S9        29.65F
COOK           CLOUDY    54  34  47 S10G18    29.69F
WALKER         PTSUNNY   52  35  52 S9        29.64F
$$
MNZ012-019>021-037-230900-
   Northeast Minnesota

CITY           SKY/WX    TMP DP  RH WIND       PRES   REMARKS
DULUTH         MOCLDY    51  34  52 S13       29.75F
ELY            MOCLDY    52  30  43 S13G18    29.72F
HIBBING        CLOUDY    51  32  48 S10       29.71F
EVELETH        CLOUDY    53  19  27 S9        29.73F
DULUTH HARBOR  PTCLDY    55  37  50 S13       29.77F
TWO HARBORS    CLOUDY    52  39  62 CALM      29.75F
SILVER BAY     CLOUDY    48  39  71 S5        29.76F
G MARAIS ARPRT CLOUDY    46  36  66 S7        29.80F
$$
MNZ029>031-032-039>041-046>048-054>057-064-230900-
   West Central Minnesota

CITY           SKY/WX    TMP DP  RH WIND       PRES   REMARKS
FERGUS FALLS   CLOUDY    57  43  58 W15       29.69S
WHEATON        CLOUDY    61  39  44 W16G23    29.73R
MORRIS         PTCLDY    55  39  54 W9        29.72F
ALEXANDRIA     LGT RAIN  52  39  61 SW12      29.74S
ELBOW LAKE     CLOUDY    55  40  58 SW8       29.71F
WADENA         MOCLDY    54  37  54 S10       29.68S
GLENWOOD       CLOUDY    54  37  54 SW9       29.75S
APPLETON       CLOUDY    59  37  44 W8        29.74F
BENSON         CLOUDY    52  37  58 SW8       29.77S
ORTONVILLE     MOCLDY    57  43  58 W8        29.74F
MADISON        CLOUDY    57  37  47 SW6       29.76F
WILLMAR        LGT RAIN  54  37  54 CALM      29.77F
$$
MNZ033>034-036-042>043-049>051-058-059-230900-
   Central Minnesota

CITY           SKY/WX    TMP DP  RH WIND       PRES   REMARKS
ST CLOUD       CLOUDY    50  38  63 S8        29.77F
SAUK CENTRE    PTSUNNY   50  37  59 S10       29.75S
PAYNESVILLE    CLOUDY    53  37  53 SW8       29.77S
AITKIN         CLOUDY    52  37  58 S13       29.70F
PINE RIVER     CLOUDY    50  36  57 S6        29.72F
BRAINERD       CLOUDY    54  34  46 S14       29.71F
STAPLES        CLOUDY    52  34  50 S13       29.70S
LONG PRAIRIE   CLOUDY    52  36  54 S10       29.74S
LITTLE FALLS   CLOUDY    52  28  40 S8        29.74F
LITCHFIELD     CLOUDY    52  39  62 CALM      29.79S
BUFFALO        PTCLDY    53  34  49 S7        29.81S
MAPLE LAKE     PTCLDY    52  39  60 S5        29.80F
HUTCHINSON     CLOUDY    47  38  71 CALM      29.81S
$$
MNZ037-044-045-052-053-230900-
   East Central Minnesota

CITY           SKY/WX    TMP DP  RH WIND       PRES   REMARKS
PRINCETON      CLOUDY    55  36  47 S7        29.79S
MORA           CLOUDY    50  34  53 S6        29.80S
CAMBRIDGE      CLOUDY    55  37  50 SE6       29.80S
RUSH CITY      MOCLDY    53  35  50 S9        29.81R
MOOSE LAKE     CLOUDY    52  32  46 S8        29.74F
HINCKLEY       CLOUDY    54  36  50 S10       29.79S
CLOQUET        MOCLDY    54  28  37 S10       29.75F
MCGREGOR       CLOUDY    52  34  50 S9        29.74S
$$
MNZ071>073-080-081-089-090-097-098-230900-
   Southwest Minnesota

CITY           SKY/WX    TMP DP  RH WIND       PRES   REMARKS
MONTEVIDEO     CLOUDY    55  37  50 SW5       29.77R
GRANITE FALLS  CLOUDY    53  39  59 SW7       29.81R
CANBY          CLOUDY    57  35  43 SW8       29.78S
MARSHALL       CLOUDY    56  34  43 SW15      29.78S
REDWOOD FALLS  PTCLDY    51  35  54 S7        29.78F
OLIVIA         PTCLDY    50  36  57 S7        29.77F
PIPESTONE      MOCLDY    48  34  57 N3        29.82R
WORTHINGTON    CLEAR     50  32  50 SW10      29.82F
JACKSON        CLEAR     46  34  61 S8        29.83F
TRACY          CLOUDY    52  35  50 SW15      29.79F
SLAYTON        CLEAR     48  32  54 SW7       29.82S
$$
MNZ065>067-074>077-082>085-091>093-230900-
   South Central Minnesota

CITY           SKY/WX    TMP DP  RH WIND       PRES   REMARKS
MANKATO        PTCLDY    50  35  56 S9        29.82F
NEW ULM          N/A     48  34  57 S5        29.82R
ST JAMES       CLEAR     48  36  61 S10       29.82F
FAIRMONT       CLEAR     48  36  63 S12       29.84F
GLENCOE        CLOUDY    51  37  57 S7        29.80S
FARIBAULT      CLOUDY    50  36  57 S9        29.85F
OWATONNA       CLOUDY    48  37  66 S15       29.85F
WASECA         PTCLDY    52  34  50 S10       29.86F
$$
MNZ078>079-086>088-094>096-230900-
   Southeast Minnesota

CITY           SKY/WX    TMP DP  RH WIND       PRES   REMARKS
ROCHESTER      CLOUDY    47  41  80 S12       29.90F
RED WING       DRIZZLE   54  37  54 E5G10     29.87F
STANTON        CLOUDY    53  37  55 S12       29.83F
DODGE CENTER   LGT RAIN  48  37  66 S17       29.88F
WINONA         PTCLDY    48  43  81 CALM      29.93F
AUSTIN         MOCLDY    46  39  76 S8        29.89F
PRESTON        PTCLDY    45  40  82 S9        29.93F
$$
ABBREVIATIONS USED IN REMARKS
   TC - TEMPERATURES IN CELSIUS
  WCI - WIND CHILL INDEX
   HX - HEAT INDEX
  VSB - VISIBILITY
$$



USA.gov is the U.S. government's official web portal to all federal, state and local government web resources and services.